When you browse on this site, cookies collect data to enhance your experience and personalize the content and advertising you see.
Visit our Privacy Policy to learn more. By continuing to use the site, you agree to this use of cookies and data.
  • In France
  • List of Countries
  • For 7 days
  • Water Temperature
  • Satellite Maps
  • Weather Map
  • Weather Widgets
  • user-avatar
    Login

    Hourly Weather Shusha

    Today, 26 June, Wednesday

    Time Temperature Precipitation Wind Pressure Humidity
    00:00 +21°C° 0 mm 2 mps 661 mmHg 46%
    01:00 +21°C° 0 mm 2 mps 661 mmHg 45%
    02:00 +20°C° 0 mm 2 mps 661 mmHg 44%
    03:00 +20°C° 0 mm 2 mps 661 mmHg 44%
    04:00 +22°C° 0 mm 1 mps 661 mmHg 46%
    05:00 +22°C° 0 mm 1 mps 661 mmHg 47%
    06:00 +23°C° 0 mm 1 mps 662 mmHg 48%
    07:00 +25°C° 0 mm 1 mps 662 mmHg 42%
    08:00 +26°C° 0 mm 2 mps 662 mmHg 37%
    09:00 +28°C° 0 mm 2 mps 663 mmHg 31%
    10:00 +28°C° 0 mm 2 mps 663 mmHg 31%
    11:00 +29°C° 0 mm 2 mps 663 mmHg 30%
    12:00 +30°C° 0 mm 3 mps 663 mmHg 30%
    13:00 +30°C° 0 mm 3 mps 663 mmHg 30%
    14:00 +30°C° 0 mm 3 mps 662 mmHg 31%
    15:00 +32°C° 0 mm 4 mps 662 mmHg 32%
    16:00 +30°C° 0 mm 3 mps 662 mmHg 35%
    17:00 +29°C° 0 mm 3 mps 662 mmHg 38%
    18:00 +28°C° 0 mm 3 mps 662 mmHg 42%
    19:00 +26°C° 0 mm 3 mps 661 mmHg 46%
    20:00 +24°C° 0 mm 2 mps 661 mmHg 50%
    21:00 +21°C° 0 mm 2 mps 661 mmHg 54%
    22:00 +20°C° 0 mm 2 mps 660 mmHg 53%
    23:00 +21°C° 0 mm 1 mps 660 mmHg 53%

    Tomorrow, 27 June, Thursday

    Time Temperature Precipitation Wind Pressure Humidity
    00:00 +21°C° 0 mm 1 mps 660 mmHg 53%
    01:00 +20°C° 0 mm 1 mps 660 mmHg 55%
    02:00 +19°C° 0 mm 2 mps 660 mmHg 56%
    03:00 +18°C° 0 mm 2 mps 660 mmHg 58%
    04:00 +19°C° 0 mm 2 mps 660 mmHg 59%
    05:00 +20°C° 0 mm 1 mps 660 mmHg 61%
    06:00 +21°C° 0 mm 1 mps 660 mmHg 62%
    07:00 +21°C° 0 mm 2 mps 660 mmHg 58%
    08:00 +23°C° 0 mm 2 mps 660 mmHg 54%
    09:00 +24°C° 0 mm 3 mps 661 mmHg 50%
    10:00 +25°C° 0 mm 3 mps 660 mmHg 48%
    11:00 +26°C° 0 mm 3 mps 660 mmHg 47%
    12:00 +27°C° 0 mm 3 mps 660 mmHg 45%
    13:00 +27°C° 0.1 mm 3 mps 660 mmHg 45%
    14:00 +28°C° 0.1 mm 3 mps 659 mmHg 44%
    15:00 +28°C° 0.1 mm 3 mps 659 mmHg 43%
    16:00 +27°C° 0.2 mm 3 mps 659 mmHg 47%
    17:00 +26°C° 0.2 mm 2 mps 658 mmHg 50%
    18:00 +26°C° 0.2 mm 2 mps 658 mmHg 53%
    19:00 +24°C° 0 mm 2 mps 658 mmHg 57%
    20:00 +21°C° 0 mm 2 mps 658 mmHg 60%
    21:00 +21°C° 0 mm 1 mps 658 mmHg 64%
    22:00 +21°C° 0.1 mm 1 mps 657 mmHg 65%
    23:00 +20°C° 0.1 mm 1 mps 657 mmHg 66%

    Day after tomorrow, 28 June, Friday

    Time Temperature Precipitation Wind Pressure Humidity
    00:00 +19°C° 0.1 mm 2 mps 657 mmHg 67%
    01:00 +20°C° 0 mm 1 mps 657 mmHg 68%
    02:00 +19°C° 0 mm 1 mps 656 mmHg 69%
    03:00 +19°C° 0 mm 1 mps 656 mmHg 70%
    04:00 +19°C° 0 mm 1 mps 656 mmHg 68%
    05:00 +20°C° 0 mm 1 mps 656 mmHg 66%
    06:00 +21°C° 0 mm 1 mps 656 mmHg 65%
    07:00 +22°C° 0.1 mm 1 mps 656 mmHg 60%
    08:00 +23°C° 0.1 mm 1 mps 656 mmHg 55%
    09:00 +25°C° 0.1 mm 2 mps 656 mmHg 50%
    10:00 +25°C° 0 mm 2 mps 656 mmHg 48%
    11:00 +26°C° 0 mm 2 mps 656 mmHg 47%
    12:00 +27°C° 0 mm 3 mps 655 mmHg 45%
    13:00 +28°C° 0 mm 3 mps 655 mmHg 45%
    14:00 +28°C° 0 mm 3 mps 655 mmHg 45%
    15:00 +28°C° 0 mm 3 mps 654 mmHg 45%
    16:00 +27°C° 0.2 mm 2 mps 654 mmHg 50%
    17:00 +26°C° 0.2 mm 2 mps 653 mmHg 55%
    18:00 +25°C° 0.2 mm 1 mps 653 mmHg 61%
    19:00 +24°C° 0.1 mm 1 mps 653 mmHg 64%
    20:00 +23°C° 0.1 mm 1 mps 653 mmHg 67%
    21:00 +22°C° 0.1 mm 1 mps 654 mmHg 70%
    22:00 +21°C° 0.1 mm 1 mps 653 mmHg 71%
    23:00 +21°C° 0.1 mm 1 mps 653 mmHg 73%

    29 June, Saturday

    Time Temperature Precipitation Wind Pressure Humidity
    00:00 +21°C° 0.1 mm 1 mps 653 mmHg 74%
    01:00 +19°C° 0 mm 2 mps 653 mmHg 75%
    02:00 +19°C° 0 mm 2 mps 652 mmHg 75%
    03:00 +19°C° 0 mm 2 mps 652 mmHg 75%
    04:00 +20°C° 0 mm 1 mps 652 mmHg 73%
    05:00 +21°C° 0 mm 1 mps 653 mmHg 71%
    06:00 +22°C° 0 mm 1 mps 653 mmHg 69%
    07:00 +23°C° 0 mm 1 mps 653 mmHg 65%
    08:00 +24°C° 0 mm 2 mps 654 mmHg 60%
    09:00 +25°C° 0 mm 2 mps 654 mmHg 56%
    10:00 +26°C° 0 mm 2 mps 654 mmHg 54%
    11:00 +27°C° 0 mm 2 mps 653 mmHg 52%
    12:00 +28°C° 0 mm 3 mps 653 mmHg 51%
    13:00 +28°C° 0.2 mm 3 mps 653 mmHg 49%
    14:00 +28°C° 0.2 mm 3 mps 653 mmHg 48%
    15:00 +29°C° 0.2 mm 3 mps 652 mmHg 47%
    16:00 +28°C° 0.4 mm 3 mps 652 mmHg 50%
    17:00 +27°C° 0.4 mm 2 mps 652 mmHg 53%
    18:00 +27°C° 0.4 mm 2 mps 652 mmHg 56%
    19:00 +25°C° 0.5 mm 2 mps 652 mmHg 62%
    20:00 +23°C° 0.5 mm 2 mps 652 mmHg 68%
    21:00 +21°C° 0.5 mm 1 mps 653 mmHg 74%
    22:00 +21°C° 1.8 mm 1 mps 653 mmHg 80%
    23:00 +20°C° 1.8 mm 1 mps 653 mmHg 86%

    30 June, Sunday

    Time Temperature Precipitation Wind Pressure Humidity
    00:00 +19°C° 1.8 mm 1 mps 653 mmHg 91%
    01:00 +19°C° 0.6 mm 1 mps 653 mmHg 92%
    02:00 +19°C° 0.6 mm 1 mps 653 mmHg 92%
    03:00 +19°C° 0.6 mm 1 mps 653 mmHg 93%
    04:00 +19°C° 0.2 mm 1 mps 653 mmHg 91%
    05:00 +19°C° 0.2 mm 1 mps 654 mmHg 90%
    06:00 +19°C° 0.2 mm 1 mps 654 mmHg 88%
    07:00 +18°C° 0.1 mm 2 mps 654 mmHg 84%
    08:00 +19°C° 0.1 mm 2 mps 655 mmHg 80%
    09:00 +20°C° 0.1 mm 2 mps 655 mmHg 75%
    10:00 +21°C° 0.2 mm 2 mps 655 mmHg 70%
    11:00 +21°C° 0.2 mm 2 mps 655 mmHg 66%
    12:00 +22°C° 0.2 mm 3 mps 655 mmHg 61%
    13:00 +24°C° 0.1 mm 3 mps 655 mmHg 58%
    14:00 +23°C° 0.1 mm 4 mps 654 mmHg 55%
    15:00 +23°C° 0.1 mm 4 mps 654 mmHg 52%
    16:00 +22°C° 0.1 mm 4 mps 654 mmHg 59%
    17:00 +21°C° 0.1 mm 4 mps 654 mmHg 67%
    18:00 +19°C° 0.1 mm 4 mps 653 mmHg 74%
    19:00 +18°C° 0.1 mm 3 mps 653 mmHg 80%
    20:00 +17°C° 0.1 mm 2 mps 654 mmHg 85%
    21:00 +16°C° 0.1 mm 2 mps 654 mmHg 91%
    22:00 +16°C° 0.3 mm 2 mps 654 mmHg 92%
    23:00 +16°C° 0.3 mm 2 mps 654 mmHg 93%

    1 July, Monday

    Time Temperature Precipitation Wind Pressure Humidity
    00:00 +16°C° 0.3 mm 2 mps 654 mmHg 94%
    01:00 +15°C° 0.6 mm 1 mps 654 mmHg 94%
    02:00 +15°C° 0.6 mm 1 mps 654 mmHg 94%
    03:00 +14°C° 0.6 mm 1 mps 654 mmHg 94%
    04:00 +14°C° 1 mm 1 mps 654 mmHg 93%
    05:00 +13°C° 1 mm 2 mps 654 mmHg 93%
    06:00 +13°C° 1 mm 2 mps 654 mmHg 93%
    07:00 +13°C° 0.2 mm 2 mps 654 mmHg 89%
    08:00 +13°C° 0.2 mm 1 mps 655 mmHg 86%
    09:00 +14°C° 0.2 mm 1 mps 655 mmHg 82%
    10:00 +14°C° 0 mm 1 mps 655 mmHg 79%
    11:00 +14°C° 0 mm 2 mps 655 mmHg 76%
    12:00 +15°C° 0 mm 2 mps 655 mmHg 73%
    13:00 +15°C° 0 mm 2 mps 655 mmHg 73%
    14:00 +15°C° 0 mm 2 mps 655 mmHg 72%
    15:00 +16°C° 0 mm 2 mps 655 mmHg 72%
    16:00 +15°C° 0.5 mm 2 mps 655 mmHg 75%
    17:00 +15°C° 0.5 mm 1 mps 655 mmHg 77%
    18:00 +14°C° 0.5 mm 1 mps 655 mmHg 80%
    19:00 +14°C° 2.1 mm 1 mps 656 mmHg 83%
    20:00 +13°C° 2.1 mm 1 mps 656 mmHg 87%
    21:00 +12°C° 2.1 mm 1 mps 657 mmHg 90%
    22:00 +12°C° 0.8 mm 1 mps 657 mmHg 90%
    23:00 +12°C° 0.8 mm 2 mps 657 mmHg 89%
    Show more